When you browse on this site, cookies collect data to enhance your experience and personalize the content and advertising you see.
Visit our Privacy Policy to learn more. By continuing to use the site, you agree to this use of cookies and data.
  • In Switzerland
  • List of Countries
  • For 7 days
  • Water Temperature
  • Satellite Maps
  • Weather Map
  • Weather Widgets
  • user-avatar
    Login

    Hourly Weather Tarin Kowt

    Today, 26 April, Friday

    Time Temperature Precipitation Wind Pressure Humidity
    00:00 +14°C° 0 mm 1 mps 617 mmHg 38%
    01:00 +14°C° 0 mm 1 mps 617 mmHg 39%
    02:00 +13°C° 0 mm 1 mps 617 mmHg 41%
    03:00 +13°C° 0 mm 1 mps 616 mmHg 42%
    04:00 +11°C° 0 mm 0 mps 616 mmHg 43%
    05:00 +12°C° 0 mm 0 mps 617 mmHg 38%
    06:00 +13°C° 0 mm 0 mps 617 mmHg 33%
    07:00 +14°C° 0 mm 0 mps 618 mmHg 29%
    08:00 +15°C° 0 mm 0 mps 618 mmHg 26%
    09:00 +18°C° 0 mm 1 mps 619 mmHg 24%
    10:00 +19°C° 0 mm 1 mps 619 mmHg 21%
    11:00 +19°C° 0 mm 2 mps 619 mmHg 20%
    12:00 +20°C° 0 mm 2 mps 619 mmHg 19%
    13:00 +21°C° 0 mm 3 mps 619 mmHg 17%
    14:00 +21°C° 0 mm 3 mps 619 mmHg 17%
    15:00 +21°C° 0 mm 4 mps 619 mmHg 17%
    16:00 +21°C° 0 mm 4 mps 619 mmHg 17%
    17:00 +20°C° 0 mm 3 mps 618 mmHg 19%
    18:00 +19°C° 0 mm 3 mps 618 mmHg 22%
    19:00 +18°C° 0 mm 2 mps 618 mmHg 24%
    20:00 +18°C° 0 mm 2 mps 618 mmHg 27%
    21:00 +18°C° 0 mm 1 mps 618 mmHg 30%
    22:00 +16°C° 0 mm 1 mps 618 mmHg 33%
    23:00 +16°C° 0 mm 1 mps 618 mmHg 35%

    Tomorrow, 27 April, Saturday

    Time Temperature Precipitation Wind Pressure Humidity
    00:00 +14°C° 0 mm 0 mps 618 mmHg 37%
    01:00 +13°C° 0 mm 0 mps 617 mmHg 39%
    02:00 +13°C° 0 mm 0 mps 617 mmHg 39%
    03:00 +13°C° 0 mm 0 mps 617 mmHg 39%
    04:00 +12°C° 0 mm 0 mps 617 mmHg 39%
    05:00 +13°C° 0 mm 0 mps 618 mmHg 35%
    06:00 +15°C° 0 mm 1 mps 618 mmHg 30%
    07:00 +16°C° 0 mm 1 mps 619 mmHg 26%
    08:00 +18°C° 0 mm 1 mps 619 mmHg 23%
    09:00 +19°C° 0 mm 1 mps 620 mmHg 21%
    10:00 +21°C° 0 mm 1 mps 620 mmHg 19%
    11:00 +20°C° 0 mm 2 mps 620 mmHg 18%
    12:00 +21°C° 0 mm 2 mps 620 mmHg 17%
    13:00 +22°C° 0 mm 3 mps 620 mmHg 16%
    14:00 +22°C° 0 mm 4 mps 619 mmHg 16%
    15:00 +22°C° 0 mm 4 mps 619 mmHg 16%
    16:00 +22°C° 0 mm 4 mps 619 mmHg 16%
    17:00 +21°C° 0 mm 3 mps 619 mmHg 19%
    18:00 +20°C° 0 mm 3 mps 618 mmHg 21%
    19:00 +19°C° 0 mm 2 mps 618 mmHg 24%
    20:00 +19°C° 0 mm 2 mps 618 mmHg 26%
    21:00 +19°C° 0 mm 1 mps 618 mmHg 28%
    22:00 +18°C° 0 mm 1 mps 619 mmHg 31%
    23:00 +16°C° 0 mm 1 mps 618 mmHg 33%

    Day after tomorrow, 28 April, Sunday

    Time Temperature Precipitation Wind Pressure Humidity
    00:00 +16°C° 0 mm 1 mps 618 mmHg 34%
    01:00 +14°C° 0 mm 0 mps 617 mmHg 36%
    02:00 +14°C° 0 mm 0 mps 617 mmHg 37%
    03:00 +13°C° 0 mm 0 mps 617 mmHg 37%
    04:00 +13°C° 0 mm 0 mps 617 mmHg 38%
    05:00 +15°C° 0 mm 1 mps 617 mmHg 33%
    06:00 +16°C° 0 mm 1 mps 618 mmHg 29%
    07:00 +18°C° 0 mm 1 mps 619 mmHg 24%
    08:00 +19°C° 0 mm 1 mps 619 mmHg 23%
    09:00 +20°C° 0 mm 1 mps 619 mmHg 21%
    10:00 +21°C° 0 mm 1 mps 620 mmHg 19%
    11:00 +21°C° 0 mm 2 mps 620 mmHg 17%
    12:00 +22°C° 0 mm 3 mps 620 mmHg 16%
    13:00 +23°C° 0 mm 4 mps 620 mmHg 14%
    14:00 +23°C° 0 mm 4 mps 619 mmHg 14%
    15:00 +23°C° 0 mm 4 mps 619 mmHg 14%
    16:00 +24°C° 0 mm 3 mps 618 mmHg 14%
    17:00 +22°C° 0 mm 3 mps 618 mmHg 17%
    18:00 +21°C° 0 mm 2 mps 618 mmHg 20%
    19:00 +21°C° 0 mm 1 mps 618 mmHg 23%
    20:00 +20°C° 0 mm 1 mps 618 mmHg 25%
    21:00 +19°C° 0 mm 1 mps 618 mmHg 28%
    22:00 +19°C° 0 mm 1 mps 618 mmHg 30%
    23:00 +18°C° 0 mm 1 mps 617 mmHg 30%

    29 April, Monday

    Time Temperature Precipitation Wind Pressure Humidity
    00:00 +18°C° 0 mm 1 mps 617 mmHg 30%
    01:00 +16°C° 0 mm 1 mps 616 mmHg 30%
    02:00 +16°C° 0 mm 1 mps 616 mmHg 30%
    03:00 +15°C° 0 mm 1 mps 615 mmHg 29%
    04:00 +15°C° 0 mm 1 mps 615 mmHg 29%
    05:00 +16°C° 0 mm 1 mps 616 mmHg 26%
    06:00 +18°C° 0 mm 1 mps 616 mmHg 24%
    07:00 +19°C° 0 mm 1 mps 617 mmHg 21%
    08:00 +20°C° 0 mm 1 mps 617 mmHg 19%
    09:00 +21°C° 0 mm 1 mps 618 mmHg 18%
    10:00 +20°C° 0 mm 0 mps 618 mmHg 17%
    11:00 +23°C° 0 mm 1 mps 618 mmHg 16%
    12:00 +24°C° 0 mm 2 mps 618 mmHg 16%
    13:00 +25°C° 0 mm 3 mps 617 mmHg 16%
    14:00 +25°C° 0 mm 3 mps 617 mmHg 16%
    15:00 +23°C° 0 mm 4 mps 616 mmHg 17%
    16:00 +23°C° 0 mm 4 mps 616 mmHg 18%
    17:00 +22°C° 0 mm 4 mps 616 mmHg 22%
    18:00 +21°C° 0 mm 3 mps 616 mmHg 27%
    19:00 +19°C° 0 mm 3 mps 615 mmHg 32%
    20:00 +19°C° 0 mm 2 mps 616 mmHg 33%
    21:00 +19°C° 0 mm 2 mps 616 mmHg 35%
    22:00 +19°C° 0 mm 2 mps 616 mmHg 37%
    23:00 +18°C° 0 mm 2 mps 615 mmHg 39%

    30 April, Tuesday

    Time Temperature Precipitation Wind Pressure Humidity
    00:00 +17°C° 0 mm 2 mps 615 mmHg 42%
    01:00 +16°C° 0 mm 1 mps 614 mmHg 45%
    02:00 +16°C° 0 mm 1 mps 614 mmHg 46%
    03:00 +15°C° 0 mm 1 mps 614 mmHg 47%
    04:00 +15°C° 0 mm 1 mps 614 mmHg 48%
    05:00 +15°C° 0 mm 2 mps 615 mmHg 45%
    06:00 +16°C° 0 mm 2 mps 615 mmHg 42%
    07:00 +17°C° 0 mm 2 mps 616 mmHg 39%
    08:00 +18°C° 0 mm 2 mps 617 mmHg 35%
    09:00 +19°C° 0 mm 2 mps 617 mmHg 31%
    10:00 +21°C° 0 mm 1 mps 618 mmHg 27%
    11:00 +22°C° 0 mm 1 mps 617 mmHg 25%
    12:00 +23°C° 0 mm 2 mps 617 mmHg 24%
    13:00 +24°C° 0 mm 2 mps 617 mmHg 22%
    14:00 +24°C° 0 mm 2 mps 617 mmHg 21%
    15:00 +24°C° 0 mm 3 mps 616 mmHg 20%
    16:00 +25°C° 0 mm 3 mps 616 mmHg 19%
    17:00 +24°C° 0 mm 3 mps 616 mmHg 22%
    18:00 +22°C° 0 mm 3 mps 616 mmHg 24%
    19:00 +21°C° 0 mm 2 mps 616 mmHg 26%
    20:00 +20°C° 0 mm 2 mps 616 mmHg 29%
    21:00 +21°C° 0 mm 1 mps 616 mmHg 31%
    22:00 +20°C° 0 mm 1 mps 616 mmHg 34%
    23:00 +19°C° 0 mm 1 mps 615 mmHg 34%

    1 May, Wednesday

    Time Temperature Precipitation Wind Pressure Humidity
    00:00 +19°C° 0 mm 1 mps 615 mmHg 35%
    01:00 +18°C° 0 mm 1 mps 614 mmHg 36%
    02:00 +18°C° 0 mm 1 mps 614 mmHg 35%
    03:00 +16°C° 0 mm 2 mps 614 mmHg 35%
    04:00 +16°C° 0 mm 2 mps 614 mmHg 35%
    05:00 +17°C° 0 mm 2 mps 615 mmHg 33%
    06:00 +17°C° 0 mm 2 mps 615 mmHg 31%
    07:00 +18°C° 0 mm 2 mps 616 mmHg 29%
    08:00 +19°C° 0 mm 2 mps 616 mmHg 25%
    09:00 +20°C° 0 mm 2 mps 617 mmHg 22%
    10:00 +21°C° 0 mm 2 mps 617 mmHg 19%
    11:00 +23°C° 0 mm 2 mps 617 mmHg 18%
    12:00 +24°C° 0 mm 1 mps 617 mmHg 16%
    13:00 +25°C° 0 mm 1 mps 616 mmHg 15%
    14:00 +25°C° 0 mm 2 mps 616 mmHg 15%
    15:00 +25°C° 0 mm 3 mps 616 mmHg 14%
    16:00 +26°C° 0 mm 3 mps 616 mmHg 14%
    17:00 +25°C° 0 mm 3 mps 616 mmHg 16%
    18:00 +24°C° 0 mm 2 mps 615 mmHg 19%
    19:00 +23°C° 0 mm 2 mps 615 mmHg 22%
    20:00 +21°C° 0 mm 2 mps 615 mmHg 23%
    21:00 +21°C° 0 mm 1 mps 615 mmHg 25%
    22:00 +20°C° 0 mm 1 mps 615 mmHg 27%
    23:00 +20°C° 0 mm 1 mps 615 mmHg 28%
    Show more